Hourly Data Report for July 19, 2006

TORONTO CITY
ONTARIO

43°40'00.000" N
79°24'00.000" W
112.50 m
6158355
71508
XTO

Download Data

Hourly Data (July 2006)
Hourly Data Report for July 19, 2006
TIME
LST
Temp Definition
°C
Dew Point Definition
°C
Rel Hum Definition
%
Precip. Amount Definition
mm

Wind Dir Definition
10's deg

Wind Spd Definition
km/h
Visibility Definition
km
Stn Press Definition
kPa
Hmdx Definition


Wind Chill Definition


Weather Definition


00:00 21.3 15.1 68   LegendMM LegendMM   100.57 25   LegendNANA
01:00 20.7 16.0 74   LegendMM LegendMM   100.59 25   LegendNANA
02:00 20.6 16.7 78   LegendMM LegendMM   100.61 26   LegendNANA
03:00 20.4 16.7 79   LegendMM LegendMM   100.62 25   LegendNANA
04:00 20.6 16.5 77   LegendMM LegendMM   100.62 26   LegendNANA
05:00 20.6 15.9 74   LegendMM LegendMM   100.67 25   LegendNANA
06:00 21.4 15.7 70   LegendMM LegendMM   100.71 26   LegendNANA
07:00 22.3 16.7 71   LegendMM LegendMM   100.77 27   LegendNANA
08:00 22.5 17.0 71   LegendMM LegendMM   100.82 28   LegendNANA
09:00 23.1 17.4 70   LegendMM LegendMM   100.83 29   LegendNANA
10:00 23.7 18.4 72   LegendMM LegendMM   100.86 30   LegendNANA
11:00 24.0 18.9 73   LegendMM LegendMM   100.84 31   LegendNANA
12:00 24.3 18.3 69   LegendMM LegendMM   100.79 31   LegendNANA
13:00 24.8 17.1 62   LegendMM LegendMM   100.75 30   LegendNANA
14:00 25.2 17.4 62   LegendMM LegendMM   100.71 31   LegendNANA
15:00 24.8 16.6 60   LegendMM LegendMM   100.64 30   LegendNANA
16:00 25.3 16.3 57   LegendMM LegendMM   100.64 30   LegendNANA
17:00 25.3 16.5 58   LegendMM LegendMM   100.63 30   LegendNANA
18:00 24.5 15.9 59   LegendMM LegendMM   100.59 29   LegendNANA
19:00 24.0 16.2 62   LegendMM LegendMM   100.54 29   LegendNANA
20:00 23.4 17.7 70   LegendMM LegendMM   100.56 29   LegendNANA
21:00 22.9 18.7 77   LegendMM LegendMM   100.55 29   LegendNANA
22:00 22.7 19.3 81   LegendMM LegendMM   100.55 30   LegendNANA
23:00 22.9 19.9 83   LegendMM LegendMM   100.55 30   LegendNANA

Notes on Data Quality.

Legend

  • E = Estimated
  • M = Missing
  • NA = Not Available*
  • [empty] = Indicates an unobserved value
Date modified: